Location: Columbia
(38.9520°N, 92.3340°W)
Time: 07:10:26
(UTC-05:00)

Cosmos 2219 Rocket - Visible Passes

Search period start: 30 August 2014 00:00
Search period end: 09 September 2014 00:00
Orbit: 829 x 846 km, 71.0° (Epoch: 29 August)

Date Brightness Start Highest point End Pass type
(mag) Time Alt. Az. Time Alt. Az. Time Alt. Az.
31 Aug 3.9 05:54:35 10° S 05:59:35 35° ESE 06:04:36 10° NE visible
01 Sep 3.9 05:38:28 10° SSE 05:43:22 33° ESE 05:48:17 10° NE visible
02 Sep 4.0 05:22:22 10° SSE 05:27:09 30° ESE 05:31:56 10° NE visible
03 Sep 4.1 05:06:17 10° SSE 05:10:56 28° ESE 05:15:35 10° NE visible
04 Sep 4.1 04:50:13 10° SSE 04:54:43 26° ESE 04:59:14 10° NE visible
05 Sep 4.2 04:34:11 10° SSE 04:38:30 24° ESE 04:42:51 10° NE visible
06 Sep 4.3 04:18:09 10° SSE 04:22:18 22° E 04:26:28 10° NE visible
06 Sep 2.5 06:00:30 10° SW 06:05:51 47° WNW 06:11:15 10° NNE visible
07 Sep 4.3 04:02:40 12° SE 04:06:06 20° E 04:10:03 10° NE visible
07 Sep 2.4 05:44:27 11° SW 05:49:35 51° WNW 05:55:03 10° NNE visible
08 Sep 4.3 03:47:36 15° SE 03:49:53 19° E 03:53:37 10° ENE visible
08 Sep 2.3 05:29:23 19° SW 05:33:19 55° WNW 05:38:49 10° NNE visible
